Regional Weather Roundup
Issued by NWS Midland/Odessa, TX

Skip options and go directly to product.
Home | Oldest Version | Previous Version | Current Version | All | Text Only | Save Text | Print | Product List | Glossary On

Skip product version selection by date and time.   
889
ASUS44 KMAF 220310
RWRMAF
MIDLAND AREA WEATHER ROUNDUP
NATIONAL WEATHER SERVICE MIDLAND TX
900 PM CST FRI NOV 21 2014

...IN SOUTHWEST TEXAS AND SOUTHEAST NEW MEXICO...

CITY           SKY/WX    TMP DP  RH WIND       PRES   REMARKS
ALPINE         PTCLDY    52  42  68 S6        30.05R
ANDREWS        MOCLDY    52  45  77 SE3       30.00R
ARTESIA        NOT AVBL
BIG SPRING     MOCLDY    63  52  67 SE6       30.02R
CARLSBAD       CLOUDY    51  33  50 S8        29.97R
DRYDEN           N/A     59  57  93 NE7       29.96S
FORT STOCKTON  PTCLDY    57  52  83 SE17      29.96S
GUAD PASS      CLOUDY    53  27  36 NE24      30.03R
HOBBS          PTCLDY    50  36  57 SE7       30.01R
MARFA          PTCLDY    54  36  50 N3        30.01S
MIDLAND AIRPK  MOCLDY    62  53  72 S8        30.00R
MIDLAND INTL   MOCLDY    58  51  78 SE8       29.99R
ODESSA         MOCLDY    60  52  74 S8        30.00R
PECOS          MOCLDY    54  48  81 NE5       29.95R
PRESIDIO       FAIR      64  43  46 NE12G18   29.88S
SEMINOLE       PTCLDY    52  42  68 CALM      30.01R
SNYDER         CLOUDY    57  48  71 E8        30.01R
WINK           CLEAR     58  49  72 SE9       29.96R
$$
...OTHER STATIONS IN TEXAS...

CITY           SKY/WX    TMP DP  RH WIND       PRES   REMARKS
ABILENE        CLEAR     60  52  74 SE9       30.00S
AMARILLO       MOCLDY    42  36  79 SE7       30.02R WCI  38
AUSTIN         CLOUDY    68  65  90 SE14      30.06R
BROWNSVILLE    CLOUDY    73  68  84 SE10      30.02S
CORPUS CHRISTI CLOUDY    72  66  81 SE9       30.05R
DALLAS FTW     CLOUDY    64  62  93 SE14      30.06S
DEL RIO        MOCLDY    63  60  90 CALM      29.96R
EL PASO        CLOUDY    58  23  26 NE7       29.97R
HOUSTON INT    MOCLDY    63  61  94 SE13      30.14R
LUBBOCK        PTCLDY    47  38  71 SE10      30.00S
SAN ANGELO     MOCLDY    63  53  70 SE3       30.00S
SAN ANTONIO    CLOUDY    69  66  90 SE17      30.05R
WACO           LGT RAIN  66  63  90 SE17      30.07R
WICHITA FALLS  NOT AVBL
$$
...OTHER LOCATIONS IN NEW MEXICO...

CITY           SKY/WX    TMP DP  RH WIND       PRES   REMARKS
ALAMAGORDO     MOCLDY    52  23  32 MISG      29.99R
ALBUQUERQUE    PTCLDY    43  17  35 CALM      30.05R
CANNON AFB     CLOUDY    44  26  48 NW1       30.01R
CLOVIS         CLOUDY    43  23  45 S6        30.02R WCI  39
HOLLOMAN AFB   MOCLDY    48  26  41 NE8       29.97S
ROSWELL        CLOUDY    48  31  51 W6        29.99R
RUIDOSO        CLOUDY    43  21  42 CALM      30.09S
SANTA FE       MOCLDY    33  19  56 N8        30.06R WCI  26
TRUTH OR CONSE CLOUDY    49  21  33 N7        30.01R
TUCUMCARI      CLOUDY    48  25  40 W9        29.98R
$$

USA.gov is the U.S. government's official web portal to all federal, state and local government web resources and services.